When you browse on this site, cookies collect data to enhance your experience and personalize the content and advertising you see.
Visit our Privacy Policy to learn more. By continuing to use the site, you agree to this use of cookies and data.
  • En España
  • Lista de países
  • Para 7 días
  • Temperatura del agua
  • El tiempo en el mapa
  • Informadores
  • user-avatar
    Iniciar sesión

    Tiempo cada hora Zakopane

    Hoy, 5 Junio, Viernes

    Tiempo Temperatura Precipitaciones Viento Presión Humedad
    00:00 +10°C° 0 mm 2 mps 671 mmHg 95%
    01:00 +10°C° 0 mm 2 mps 671 mmHg 95%
    02:00 +10°C° 0 mm 3 mps 671 mmHg 95%
    03:00 +9°C° 0 mm 3 mps 671 mmHg 95%
    04:00 +9°C° 0 mm 3 mps 670 mmHg 95%
    05:00 +10°C° 0.1 mm 3 mps 671 mmHg 93%
    06:00 +11°C° 0.1 mm 3 mps 671 mmHg 91%
    07:00 +12°C° 0.1 mm 3 mps 672 mmHg 89%
    08:00 +12°C° 0.2 mm 3 mps 672 mmHg 88%
    09:00 +12°C° 0.2 mm 3 mps 672 mmHg 87%
    10:00 +13°C° 0.2 mm 3 mps 672 mmHg 86%
    11:00 +13°C° 0.2 mm 3 mps 673 mmHg 88%
    12:00 +13°C° 0.2 mm 3 mps 673 mmHg 89%
    13:00 +14°C° 0.2 mm 2 mps 673 mmHg 90%
    14:00 +13°C° 0.4 mm 2 mps 673 mmHg 92%
    15:00 +13°C° 0.4 mm 2 mps 673 mmHg 94%
    16:00 +13°C° 0.4 mm 2 mps 673 mmHg 96%
    17:00 +13°C° 0.8 mm 1 mps 673 mmHg 97%
    18:00 +13°C° 0.8 mm 1 mps 673 mmHg 97%
    19:00 +12°C° 0.8 mm 1 mps 673 mmHg 98%
    20:00 +12°C° 1.3 mm 1 mps 674 mmHg 98%
    21:00 +12°C° 1.3 mm 1 mps 674 mmHg 98%
    22:00 +12°C° 1.3 mm 1 mps 675 mmHg 98%
    23:00 +11°C° 0 mm 1 mps 675 mmHg 98%

    Mañana, 6 Junio, Sábado

    Tiempo Temperatura Precipitaciones Viento Presión Humedad
    00:00 +11°C° 0 mm 1 mps 676 mmHg 98%
    01:00 +10°C° 0 mm 1 mps 676 mmHg 97%
    02:00 +8°C° 0 mm 2 mps 676 mmHg 96%
    03:00 +8°C° 0 mm 2 mps 676 mmHg 95%
    04:00 +7°C° 0 mm 2 mps 677 mmHg 93%
    05:00 +9°C° 0 mm 2 mps 678 mmHg 88%
    06:00 +12°C° 0 mm 1 mps 678 mmHg 83%
    07:00 +14°C° 0 mm 1 mps 679 mmHg 77%
    08:00 +16°C° 0 mm 1 mps 680 mmHg 68%
    09:00 +17°C° 0 mm 2 mps 680 mmHg 60%
    10:00 +19°C° 0 mm 2 mps 681 mmHg 51%
    11:00 +20°C° 0 mm 2 mps 681 mmHg 51%
    12:00 +20°C° 0 mm 2 mps 681 mmHg 50%
    13:00 +21°C° 0 mm 2 mps 681 mmHg 50%
    14:00 +21°C° 0.1 mm 2 mps 680 mmHg 53%
    15:00 +20°C° 0.1 mm 2 mps 680 mmHg 55%
    16:00 +20°C° 0.1 mm 2 mps 680 mmHg 58%
    17:00 +19°C° 0.1 mm 2 mps 679 mmHg 67%
    18:00 +18°C° 0.1 mm 1 mps 679 mmHg 76%
    19:00 +15°C° 0.1 mm 1 mps 678 mmHg 85%
    20:00 +14°C° 0 mm 1 mps 678 mmHg 87%
    21:00 +13°C° 0 mm 1 mps 678 mmHg 90%
    22:00 +12°C° 0 mm 1 mps 678 mmHg 92%
    23:00 +12°C° 0 mm 1 mps 678 mmHg 92%

    Pasado mañana, 7 Junio, Domingo

    Tiempo Temperatura Precipitaciones Viento Presión Humedad
    00:00 +12°C° 0 mm 1 mps 678 mmHg 92%
    01:00 +12°C° 0 mm 1 mps 678 mmHg 91%
    02:00 +12°C° 0.1 mm 1 mps 678 mmHg 91%
    03:00 +12°C° 0.1 mm 1 mps 678 mmHg 91%
    04:00 +12°C° 0.1 mm 1 mps 678 mmHg 90%
    05:00 +13°C° 0.5 mm 1 mps 678 mmHg 90%
    06:00 +14°C° 0.5 mm 1 mps 678 mmHg 91%
    07:00 +15°C° 0.5 mm 1 mps 679 mmHg 91%
    08:00 +16°C° 0.8 mm 1 mps 679 mmHg 90%
    09:00 +18°C° 0.8 mm 1 mps 680 mmHg 88%
    10:00 +17°C° 0.8 mm 2 mps 680 mmHg 87%
    11:00 +17°C° 1.7 mm 2 mps 680 mmHg 89%
    12:00 +16°C° 1.7 mm 2 mps 680 mmHg 90%
    13:00 +16°C° 1.7 mm 2 mps 680 mmHg 92%
    14:00 +16°C° 0.5 mm 2 mps 680 mmHg 90%
    15:00 +16°C° 0.5 mm 1 mps 680 mmHg 87%
    16:00 +18°C° 0.5 mm 1 mps 680 mmHg 84%
    17:00 +16°C° 0.3 mm 1 mps 680 mmHg 87%
    18:00 +15°C° 0.3 mm 1 mps 680 mmHg 90%
    19:00 +15°C° 0.3 mm 1 mps 680 mmHg 92%
    20:00 +14°C° 1 mm 1 mps 680 mmHg 94%
    21:00 +14°C° 1 mm 1 mps 680 mmHg 95%
    22:00 +13°C° 1 mm 1 mps 680 mmHg 96%
    23:00 +13°C° 0.8 mm 1 mps 680 mmHg 97%

    8 Junio, Lunes

    Tiempo Temperatura Precipitaciones Viento Presión Humedad
    00:00 +13°C° 0.8 mm 1 mps 680 mmHg 97%
    01:00 +13°C° 0.8 mm 1 mps 680 mmHg 97%
    02:00 +12°C° 0.1 mm 1 mps 679 mmHg 97%
    03:00 +12°C° 0.1 mm 1 mps 679 mmHg 97%
    04:00 +12°C° 0.1 mm 1 mps 679 mmHg 97%
    05:00 +13°C° 0.1 mm 1 mps 679 mmHg 95%
    06:00 +14°C° 0.1 mm 1 mps 680 mmHg 93%
    07:00 +15°C° 0.1 mm 1 mps 680 mmHg 91%
    08:00 +16°C° 0.5 mm 1 mps 680 mmHg 90%
    09:00 +18°C° 0.5 mm 1 mps 680 mmHg 88%
    10:00 +18°C° 0.5 mm 1 mps 680 mmHg 86%
    11:00 +18°C° 0.7 mm 2 mps 680 mmHg 81%
    12:00 +20°C° 0.7 mm 2 mps 680 mmHg 76%
    13:00 +21°C° 0.7 mm 2 mps 680 mmHg 70%
    14:00 +20°C° 1.2 mm 2 mps 680 mmHg 75%
    15:00 +20°C° 1.2 mm 2 mps 680 mmHg 79%
    16:00 +20°C° 1.2 mm 1 mps 680 mmHg 83%
    17:00 +19°C° 0.7 mm 1 mps 679 mmHg 86%
    18:00 +18°C° 0.7 mm 1 mps 679 mmHg 88%
    19:00 +15°C° 0.7 mm 0 mps 679 mmHg 91%
    20:00 +14°C° 0.3 mm 0 mps 679 mmHg 91%
    21:00 +13°C° 0.3 mm 0 mps 679 mmHg 91%
    22:00 +13°C° 0.3 mm 0 mps 679 mmHg 91%
    23:00 +12°C° 0 mm 0 mps 679 mmHg 91%

    9 Junio, Martes

    Tiempo Temperatura Precipitaciones Viento Presión Humedad
    00:00 +12°C° 0 mm 0 mps 679 mmHg 91%
    01:00 +13°C° 0 mm 1 mps 679 mmHg 91%
    02:00 +11°C° 0 mm 0 mps 679 mmHg 91%
    03:00 +11°C° 0 mm 0 mps 679 mmHg 91%
    04:00 +11°C° 0 mm 0 mps 679 mmHg 91%
    05:00 +12°C° 0 mm 0 mps 680 mmHg 89%
    06:00 +14°C° 0 mm 0 mps 680 mmHg 88%
    07:00 +15°C° 0 mm 0 mps 681 mmHg 86%
    08:00 +16°C° 0.6 mm 0 mps 681 mmHg 87%
    09:00 +16°C° 0.6 mm 0 mps 681 mmHg 88%
    10:00 +16°C° 0.6 mm 0 mps 681 mmHg 89%
    11:00 +16°C° 0.4 mm 0 mps 681 mmHg 87%
    12:00 +17°C° 0.4 mm 0 mps 681 mmHg 84%
    13:00 +17°C° 0.4 mm 0 mps 681 mmHg 82%
    14:00 +19°C° 0.5 mm 1 mps 681 mmHg 82%
    15:00 +19°C° 0.5 mm 1 mps 681 mmHg 82%
    16:00 +20°C° 0.5 mm 1 mps 681 mmHg 82%
    17:00 +19°C° 0.7 mm 1 mps 681 mmHg 86%
    18:00 +16°C° 0.7 mm 1 mps 681 mmHg 90%
    19:00 +14°C° 0.7 mm 0 mps 681 mmHg 94%
    20:00 +14°C° 0.1 mm 0 mps 681 mmHg 95%
    21:00 +13°C° 0.1 mm 0 mps 681 mmHg 95%
    22:00 +12°C° 0.1 mm 0 mps 681 mmHg 95%
    23:00 +12°C° 0 mm 0 mps 681 mmHg 96%

    10 Junio, Miércoles

    Tiempo Temperatura Precipitaciones Viento Presión Humedad
    00:00 +11°C° 0 mm 0 mps 681 mmHg 96%
    01:00 +11°C° 0 mm 0 mps 681 mmHg 96%
    02:00 +11°C° 0.1 mm 0 mps 681 mmHg 96%
    03:00 +11°C° 0.1 mm 0 mps 681 mmHg 96%
    04:00 +11°C° 0.1 mm 0 mps 681 mmHg 96%
    05:00 +12°C° 0.3 mm 0 mps 682 mmHg 95%
    06:00 +14°C° 0.3 mm 0 mps 682 mmHg 95%
    07:00 +16°C° 0.3 mm 1 mps 683 mmHg 94%
    08:00 +18°C° 0.6 mm 1 mps 683 mmHg 91%
    09:00 +18°C° 0.6 mm 1 mps 683 mmHg 89%
    10:00 +19°C° 0.6 mm 1 mps 683 mmHg 86%
    11:00 +20°C° 0.7 mm 1 mps 683 mmHg 85%
    12:00 +20°C° 0.7 mm 1 mps 683 mmHg 83%
    13:00 +21°C° 0.7 mm 1 mps 683 mmHg 81%
    14:00 +20°C° 1.2 mm 1 mps 683 mmHg 85%
    15:00 +19°C° 1.2 mm 1 mps 683 mmHg 89%
    16:00 +19°C° 1.2 mm 1 mps 683 mmHg 92%
    17:00 +18°C° 0.9 mm 1 mps 683 mmHg 94%
    18:00 +18°C° 0.9 mm 1 mps 683 mmHg 95%
    19:00 +16°C° 0.9 mm 1 mps 682 mmHg 96%
    20:00 +15°C° 0.3 mm 1 mps 682 mmHg 97%
    21:00 +15°C° 0.3 mm 1 mps 682 mmHg 97%
    22:00 +13°C° 0.3 mm 0 mps 682 mmHg 97%
    23:00 +13°C° 0.2 mm 0 mps 682 mmHg 97%
    Mostrar más